Location: Makanda
(37.6176°N, 89.2090°W)
Time: 13:15:46
(UTC+00:00)

SL-16 R/B - Pass Details

Date: 23 September 2019
Orbit: 840 x 849 km, 71.0° (Epoch: 20 October)

Event Time Altitude Azimuth Distance (km) Brightness Sun altitude
Rises 02:05:47 0° 338° (NNW) 3,413 6.0 -26.3°
Reaches altitude 10° 02:08:15 10° 339° (NNW) 2,476 5.1 -26.7°
Enters shadow 02:13:50 84° 37° (NE) 858 2.1 -27.8°
